#Datum;Uhrzeit;WR;Pac;DaySum;Status;WR;Pac;DaySum;Status;Pdc1;Udc;Temp;WR;Pac;DaySum;Status;Pdc1;Udc;Temp;WR;Pac;DaySum;Status;Pdc1;Udc;Temp;WR;Pac;DaySum;Status;Pdc1;Pdc2;Udc1;Udc2;Temp;WR;Pac;DaySum;Status;Pdc1;Pdc2;Udc1;Udc2;Temp;WR;Pac;DaySum;Status;Pdc1;Udc;Temp;WR;Pac;DaySum;Status;Pdc1;Udc;Temp;WR;Pac;DaySum;Status;Pdc1;Udc;Temp
09.06.21;23:55:00;1;365;12522;0;2;0;28713;0;0;0;0;3;0;18824;0;0;0;0;4;0;27133;0;0;0;0;5;0;70469;0;0;0;0;0;0;6;0;52688;0;0;0;0;0;0;7;0;34740;0;0;0;0;8;0;34924;0;0;0;0;9;0;19308;0;0;0;0
09.06.21;23:50:00;1;292;12495;0;2;0;28713;0;0;0;0;3;0;18824;0;0;0;0;4;0;27133;0;0;0;0;5;0;70469;0;0;0;0;0;0;6;0;52688;0;0;0;0;0;0;7;0;34740;0;0;0;0;8;0;34924;0;0;0;0;9;0;19308;0;0;0;0
09.06.21;23:45:00;1;391;12469;0;2;0;28713;0;0;0;0;3;0;18824;0;0;0;0;4;0;27133;0;0;0;0;5;0;70469;0;0;0;0;0;0;6;0;52688;0;0;0;0;0;0;7;0;34740;0;0;0;0;8;0;34924;0;0;0;0;9;0;19308;0;0;0;0
09.06.21;23:40:00;1;291;12442;0;2;0;28713;0;0;0;0;3;0;18824;0;0;0;0;4;0;27133;0;0;0;0;5;0;70469;0;0;0;0;0;0;6;0;52688;0;0;0;0;0;0;7;0;34740;0;0;0;0;8;0;34924;0;0;0;0;9;0;19308;0;0;0;0
09.06.21;23:35:00;1;292;12417;0;2;0;28713;0;0;0;0;3;0;18824;0;0;0;0;4;0;27133;0;0;0;0;5;0;70469;0;0;0;0;0;0;6;0;52688;0;0;0;0;0;0;7;0;34740;0;0;0;0;8;0;34924;0;0;0;0;9;0;19308;0;0;0;0
09.06.21;23:30:00;1;294;12393;0;2;0;28713;0;0;0;0;3;0;18824;0;0;0;0;4;0;27133;0;0;0;0;5;0;70469;0;0;0;0;0;0;6;0;52688;0;0;0;0;0;0;7;0;34740;0;0;0;0;8;0;34924;0;0;0;0;9;0;19308;0;0;0;0
09.06.21;23:25:00;1;389;12365;0;2;0;28713;0;0;0;0;3;0;18824;0;0;0;0;4;0;27133;0;0;0;0;5;0;70469;0;0;0;0;0;0;6;0;52688;0;0;0;0;0;0;7;0;34740;0;0;0;0;8;0;34924;0;0;0;0;9;0;19308;0;0;0;0
09.06.21;23:20:00;1;445;12339;0;2;0;28713;0;0;0;0;3;0;18824;0;0;0;0;4;0;27133;0;0;0;0;5;0;70469;0;0;0;0;0;0;6;0;52688;0;0;0;0;0;0;7;0;34740;0;0;0;0;8;0;34924;0;0;0;0;9;0;19308;0;0;0;0
09.06.21;23:15:00;1;368;12299;0;2;0;28713;0;0;0;0;3;0;18824;0;0;0;0;4;0;27133;0;0;0;0;5;0;70469;0;0;0;0;0;0;6;0;52688;0;0;0;0;0;0;7;0;34740;0;0;0;0;8;0;34924;0;0;0;0;9;0;19308;0;0;0;0
09.06.21;23:10:00;1;358;12269;0;2;0;28713;0;0;0;0;3;0;18824;0;0;0;0;4;0;27133;0;0;0;0;5;0;70469;0;0;0;0;0;0;6;0;52688;0;0;0;0;0;0;7;0;34740;0;0;0;0;8;0;34924;0;0;0;0;9;0;19308;0;0;0;0
09.06.21;23:05:00;1;352;12239;0;2;0;28713;0;0;0;0;3;0;18824;0;0;0;0;4;0;27133;0;0;0;0;5;0;70469;0;0;0;0;0;0;6;0;52688;0;0;0;0;0;0;7;0;34740;0;0;0;0;8;0;34924;0;0;0;0;9;0;19308;0;0;0;0
09.06.21;23:00:00;1;343;12209;0;2;0;28713;0;0;0;0;3;0;18824;0;0;0;0;4;0;27133;0;0;0;0;5;0;70469;0;0;0;0;0;0;6;0;52688;0;0;0;0;0;0;7;0;34740;0;0;0;0;8;0;34924;0;0;0;0;9;0;19308;0;0;0;0
09.06.21;22:55:00;1;359;12183;0;2;0;28713;0;0;0;0;3;0;18824;0;0;0;0;4;0;27133;0;0;0;0;5;0;70469;2;0;0;0;0;0;6;0;52688;2;0;0;0;0;0;7;0;34740;0;0;0;0;8;0;34924;0;0;0;0;9;0;19308;0;0;0;0
09.06.21;22:50:00;1;288;12160;0;2;0;28713;0;0;0;0;3;0;18824;0;0;0;0;4;0;27133;0;0;0;0;5;0;70469;2;0;0;0;0;0;6;0;52688;2;0;0;0;0;0;7;0;34740;0;0;0;0;8;0;34924;0;0;0;0;9;0;19308;0;0;0;0
09.06.21;22:45:00;1;388;12129;0;2;0;28713;0;0;0;0;3;0;18824;0;0;0;0;4;0;27133;0;0;0;0;5;0;70469;2;0;0;0;0;0;6;0;52688;2;0;0;0;0;0;7;0;34740;0;0;0;0;8;0;34924;0;0;0;0;9;0;19308;0;0;0;0
09.06.21;22:40:00;1;387;12096;0;2;0;28713;0;0;0;0;3;0;18824;0;0;0;0;4;0;27133;0;0;0;0;5;0;70469;2;0;0;0;0;0;6;0;52688;2;0;0;0;0;0;7;0;34740;0;0;0;0;8;0;34924;0;0;0;0;9;0;19308;0;0;0;0
09.06.21;22:35:00;1;408;12064;0;2;0;28713;0;0;0;0;3;0;18824;0;0;0;0;4;0;27133;0;0;0;0;5;0;70469;2;0;0;0;0;0;6;0;52688;2;0;0;0;0;0;7;0;34740;0;0;0;0;8;0;34924;0;0;0;0;9;0;19308;0;0;0;0
09.06.21;22:30:00;1;479;12029;0;2;0;28713;0;0;0;0;3;0;18824;0;0;0;0;4;0;27133;0;0;0;0;5;0;70469;2;0;0;0;0;0;6;0;52688;2;0;0;0;0;0;7;0;34740;0;0;0;0;8;0;34924;0;0;0;0;9;0;19308;0;0;0;0
09.06.21;22:25:00;1;329;11992;0;2;0;28713;0;0;0;0;3;0;18824;0;0;0;0;4;0;27133;0;0;0;0;5;0;70469;2;0;0;0;0;0;6;0;52688;2;0;0;0;0;0;7;0;34740;0;0;0;0;8;0;34924;0;0;0;0;9;0;19308;0;0;0;0
09.06.21;22:20:00;1;426;11965;0;2;0;28713;0;0;0;0;3;0;18824;0;0;0;0;4;0;27133;0;0;0;0;5;0;70469;2;0;0;0;0;0;6;0;52688;2;0;0;0;0;0;7;0;34740;0;0;0;0;8;0;34924;0;0;0;0;9;0;19308;0;0;0;0
09.06.21;22:15:00;1;419;11929;0;2;0;28713;0;0;0;0;3;0;18824;0;0;0;0;4;0;27133;0;0;0;0;5;0;70469;2;0;0;0;0;0;6;0;52688;2;0;0;0;0;0;7;0;34740;0;0;0;0;8;0;34924;0;0;0;0;9;0;19308;0;0;0;0
09.06.21;22:10:00;1;382;11894;0;2;0;28713;0;0;0;0;3;0;18824;0;0;0;0;4;0;27133;0;0;0;0;5;0;70469;2;0;0;0;0;0;6;0;52688;2;0;0;0;0;0;7;0;34740;0;0;0;0;8;0;34924;0;0;0;0;9;0;19308;0;0;0;0
09.06.21;22:05:00;1;507;11862;0;2;0;28713;0;0;0;0;3;0;18824;0;0;0;0;4;0;27133;0;0;0;0;5;0;70469;2;0;0;0;0;0;6;0;52688;2;0;0;0;0;0;7;0;34740;0;0;0;0;8;0;34924;0;0;0;0;9;0;19308;0;0;0;0
09.06.21;22:00:00;1;546;11819;0;2;0;28713;0;0;0;0;3;0;18824;0;0;0;0;4;0;27133;0;0;0;0;5;0;70469;2;0;0;0;0;0;6;0;52688;2;0;0;0;0;0;7;0;34740;0;0;0;0;8;0;34924;0;0;0;0;9;0;19308;0;0;0;0
09.06.21;21:55:00;1;650;11771;0;2;0;28713;0;0;0;0;3;0;18824;0;0;0;0;4;0;27133;0;0;0;0;5;0;70469;2;0;0;0;0;0;6;0;52688;2;0;0;0;0;0;7;0;34740;0;0;0;0;8;0;34924;0;0;0;0;9;0;19308;0;0;0;0
09.06.21;21:50:00;1;399;11717;0;2;0;28713;0;0;0;0;3;0;18824;0;0;0;0;4;0;27133;0;0;0;0;5;0;70469;2;0;0;0;0;0;6;0;52688;2;0;0;0;0;0;7;0;34740;0;0;0;0;8;0;34924;0;0;0;0;9;0;19308;0;0;0;0
09.06.21;21:45:00;1;305;11674;0;2;0;28713;0;0;0;0;3;0;18824;0;0;0;0;4;0;27133;0;0;0;0;5;0;70469;2;0;0;0;0;0;6;0;52688;2;0;0;0;0;0;7;0;34740;0;0;0;0;8;0;34924;0;0;0;0;9;0;19308;0;0;0;0
09.06.21;21:40:00;1;316;11649;0;2;0;28713;0;0;0;0;3;0;18824;0;0;0;0;4;0;27133;0;0;0;0;5;0;70469;2;0;0;0;0;0;6;0;52688;2;0;0;0;0;0;7;0;34740;0;0;0;0;8;0;34924;0;0;0;0;9;0;19308;0;0;0;0
09.06.21;21:35:00;1;272;11622;0;2;0;28713;0;0;0;0;3;0;18824;0;0;0;0;4;0;27133;0;0;0;0;5;0;70469;2;0;0;0;0;0;6;0;52688;2;0;0;0;0;0;7;0;34740;0;0;0;0;8;0;34924;0;0;0;0;9;0;19308;0;0;0;0
09.06.21;21:30:00;1;272;11599;0;2;0;28713;0;0;0;0;3;0;18824;0;0;0;0;4;0;27133;0;0;0;0;5;0;70469;2;0;0;0;0;0;6;0;52688;2;0;0;0;0;0;7;0;34740;0;0;0;0;8;0;34924;0;0;0;0;9;0;19308;0;0;0;0
09.06.21;21:25:00;1;273;11576;0;2;0;28713;0;0;0;0;3;0;18824;0;0;0;0;4;0;27133;0;0;0;0;5;0;70469;2;0;0;0;0;0;6;0;52688;2;0;0;0;0;0;7;0;34740;0;0;0;0;8;0;34924;0;0;0;0;9;0;19308;0;0;0;0
09.06.21;21:20:00;1;273;11554;0;2;0;28713;0;0;0;0;3;0;18824;0;0;0;0;4;0;27133;0;0;0;0;5;0;70469;2;0;0;0;0;0;6;0;52688;2;0;0;0;0;0;7;0;34740;0;0;0;0;8;0;34924;0;0;0;0;9;0;19308;0;0;0;0
09.06.21;21:15:00;1;364;11531;0;2;0;28713;0;0;84;9;3;0;18824;6;0;279;29;4;0;27133;0;0;32;15;5;0;70469;2;0;0;0;0;0;6;0;52688;2;0;0;0;0;0;7;0;34740;0;0;0;0;8;0;34924;0;0;0;0;9;0;19308;0;0;0;0
09.06.21;21:10:00;1;518;11498;0;2;0;28713;6;0;278;27;3;0;18824;6;0;320;29;4;0;27133;2;0;88;31;5;0;70469;2;4;9;16;15;6;6;0;52688;2;0;0;0;0;0;7;0;34740;0;0;0;0;8;0;34924;0;0;0;0;9;0;19308;0;0;0;0
09.06.21;21:05:00;1;545;11455;0;2;0;28713;6;0;310;27;3;0;18824;6;0;379;30;4;0;27133;1;0;125;31;5;0;70469;1;0;0;268;266;30;6;0;52688;2;1;0;138;137;17;7;0;34740;0;0;175;20;8;0;34924;0;0;177;19;9;0;19308;2;0;224;22
09.06.21;21:00:00;1;605;11409;0;2;0;28713;6;0;340;27;3;0;18824;6;2;412;30;4;0;27133;1;0;165;32;5;0;70469;26;0;0;368;411;37;6;0;52688;23;0;0;472;468;35;7;0;34740;6;0;319;30;8;0;34924;6;0;323;29;9;0;19308;6;0;339;27
09.06.21;20:55:00;1;625;11359;0;2;0;28713;6;0;371;27;3;1;18824;6;4;452;30;4;0;27133;1;0;195;32;5;8;70469;1;0;0;380;593;37;6;7;52688;1;0;0;515;509;35;7;0;34740;6;0;389;30;8;0;34924;6;0;392;30;9;0;19308;4;1;402;27
09.06.21;20:50:00;1;639;11306;0;2;0;28713;6;0;381;28;3;1;18824;6;5;462;30;4;0;27133;1;0;203;32;5;27;70468;1;0;3;380;602;38;6;0;52687;26;0;0;539;530;35;7;0;34740;6;0;407;30;8;0;34924;6;0;410;30;9;0;19308;3;2;427;27
09.06.21;20:45:00;1;484;11252;0;2;0;28713;6;0;397;28;3;2;18823;4;12;463;31;4;0;27133;1;0;215;33;5;75;70465;4;0;12;358;567;38;6;16;52687;4;0;1;541;523;36;7;0;34740;3;3;402;30;8;0;34924;3;3;408;30;9;0;19308;6;2;374;23
09.06.21;20:40:00;1;473;11211;0;2;0;28713;6;0;385;28;3;0;18823;6;6;466;31;4;0;27133;3;0;200;33;5;92;70459;4;5;21;358;567;39;6;57;52686;1;0;8;522;502;37;7;1;34740;6;4;422;31;8;2;34924;6;5;425;30;9;2;19307;6;3;463;28
09.06.21;20:35:00;1;472;11172;0;2;0;28713;6;0;395;29;3;1;18823;6;6;483;31;4;5;27133;3;5;200;33;5;121;70451;4;26;35;358;567;39;6;92;52680;4;1;20;510;491;37;7;0;34739;6;7;442;31;8;3;34924;6;13;428;31;9;1;19307;6;4;488;28
09.06.21;20:30:00;1;473;11132;0;2;12;28713;6;26;381;29;3;5;18823;6;17;453;31;4;7;27133;3;7;199;33;5;139;70440;4;32;42;358;567;39;6;104;52672;4;4;28;510;491;37;7;0;34739;6;9;445;31;8;2;34924;6;8;447;31;9;2;19307;6;6;491;28
09.06.21;20:25:00;1;494;11093;0;2;35;28712;4;69;355;30;3;3;18823;6;7;493;32;4;8;27132;3;9;199;33;5;150;70428;4;38;50;358;567;39;6;114;52663;4;7;35;510;491;37;7;3;34739;6;8;452;32;8;4;34924;6;9;453;31;9;1;19307;6;5;478;28
09.06.21;20:20:00;1;502;11051;0;2;51;28709;4;89;355;30;3;4;18822;6;11;496;32;4;20;27131;3;21;198;34;5;193;70416;4;67;69;358;567;39;6;142;52653;4;24;50;510;491;37;7;42;34739;6;72;358;32;8;37;34923;6;60;384;32;9;8;19307;3;18;472;29
09.06.21;20:15:00;1;522;11010;0;2;94;28705;4;131;359;30;3;52;18822;4;87;412;33;4;63;27129;3;65;198;34;5;271;70399;4;109;104;358;567;39;6;204;52641;4;59;81;510;491;37;7;84;34735;4;115;368;32;8;85;34920;4;120;380;32;9;15;19306;6;24;486;29
09.06.21;20:10:00;1;556;10966;0;2;121;28697;4;161;361;31;3;71;18818;4;109;435;33;4;88;27124;3;92;200;34;5;318;70376;4;132;123;358;567;39;6;240;52623;4;77;102;510;491;37;7;117;34728;4;149;394;32;8;110;34913;4;150;404;32;9;55;19305;4;87;432;30
09.06.21;20:05:00;1;516;10921;0;2;130;28687;4;171;354;31;3;78;18812;4;114;446;33;4;99;27117;3;103;201;34;5;320;70349;4;137;124;358;567;39;6;243;52603;4;82;99;510;491;37;7;112;34719;4;153;404;32;8;113;34904;4;154;412;32;9;63;19300;4;92;446;30
09.06.21;20:00:00;1;568;10878;0;2;127;28676;4;167;361;31;3;75;18805;4;112;444;33;4;92;27109;3;95;200;34;5;316;70323;4;135;124;358;567;39;6;241;52583;4;78;99;510;491;37;7;109;34709;4;144;357;32;8;115;34895;4;151;372;32;9;60;19295;4;91;449;30
09.06.21;19:55:00;1;602;10828;0;2;145;28665;4;184;352;31;3;85;18799;4;118;421;33;4;108;27101;5;112;208;35;5;350;70296;4;157;137;358;567;39;6;262;52563;4;91;109;510;491;37;7;132;34700;4;169;368;33;8;135;34885;4;169;377;32;9;68;19290;4;103;449;30
09.06.21;19:50:00;1;521;10777;0;2;170;28653;4;210;358;32;3;101;18792;4;140;445;34;4;132;27092;5;138;208;35;5;401;70267;4;178;163;360;567;39;6;302;52541;4;109;131;510;491;37;7;170;34689;4;208;400;33;8;173;34874;4;209;397;32;9;75;19284;4;121;464;31
09.06.21;19:45:00;1;474;10733;0;2;205;28639;4;245;356;32;3;119;18784;4;159;476;34;4;165;27081;5;172;214;35;5;480;70232;4;221;192;375;596;40;6;352;52515;4;134;154;510;491;38;7;209;34675;4;246;418;33;8;206;34859;4;251;413;33;9;110;19278;4;143;482;31
09.06.21;19:40:00;1;474;10694;0;2;242;28622;4;285;361;32;3;146;18774;4;186;474;34;4;197;27067;5;205;211;35;5;557;70192;4;254;229;375;608;40;6;405;52485;4;156;185;510;502;38;7;247;34657;4;295;427;33;8;250;34842;4;292;421;33;9;135;19268;4;167;476;31
09.06.21;19:35:00;1;478;10653;0;2;286;28602;4;330;363;33;3;175;18762;4;216;460;34;4;239;27051;5;249;218;36;5;656;70145;4;310;270;385;602;40;6;478;52451;4;197;214;509;510;38;7;306;34637;4;349;429;33;8;302;34821;4;344;429;33;9;162;19257;4;198;466;31
09.06.21;19:30:00;1;512;10612;0;2;334;28578;4;383;377;33;3;203;18747;4;248;467;35;4;284;27031;5;296;222;36;5;765;70090;4;371;319;393;629;40;6;557;52410;4;228;256;522;514;38;7;359;34611;4;403;416;33;8;358;34796;4;402;410;33;9;190;19244;4;230;483;32
09.06.21;19:25:00;1;483;10569;0;2;389;28550;4;439;373;34;3;239;18730;4;285;455;35;4;333;27007;5;347;219;36;5;867;70025;4;419;366;387;618;40;6;631;52363;4;268;293;519;516;38;7;421;34581;4;464;425;33;8;418;34766;4;468;437;33;9;226;19228;4;265;487;32
09.06.21;19:20:00;1;523;10528;0;2;436;28518;4;489;373;34;3;270;18710;4;316;472;35;4;374;26979;5;389;222;36;5;956;69952;4;469;401;391;620;40;6;708;52310;4;300;322;535;518;38;7;463;34546;4;511;429;33;8;472;34732;4;515;432;33;9;248;19209;4;292;484;32
09.06.21;19:15:00;1;588;10483;0;2;491;28481;4;545;374;34;3;305;18688;4;355;475;36;4;419;26948;5;436;223;37;5;1052;69872;4;524;442;396;623;40;6;773;52250;4;329;357;536;513;38;7;517;34508;4;569;447;34;8;520;34692;4;570;452;33;9;277;19188;4;321;490;32
09.06.21;19:10:00;1;626;10434;0;2;525;28441;4;579;371;34;3;328;18662;4;381;478;36;4;446;26913;5;464;221;37;5;1100;69784;4;545;468;394;632;40;6;812;52185;4;351;375;534;526;38;7;548;34465;4;609;451;34;8;556;34649;4;609;448;33;9;295;19165;4;343;484;33
09.06.21;19:05:00;1;601;10383;0;2;535;28397;4;589;376;35;3;333;18635;4;387;475;36;4;456;26876;5;475;224;37;5;1109;69692;4;552;470;388;620;40;6;825;52117;4;347;383;541;530;38;7;564;34419;4;613;453;34;8;567;34603;4;618;450;34;9;241;19140;4;278;385;26
09.06.21;19:00:00;1;558;10333;0;2;565;28352;4;623;370;35;3;353;18607;4;406;482;36;4;478;26838;5;497;223;37;5;1148;69599;4;577;484;394;630;40;6;856;52049;4;373;389;547;532;38;7;592;34372;4;642;448;34;8;588;34555;4;647;434;34;9;317;19115;4;364;489;33
09.06.21;18:55:00;1;551;10286;0;2;611;28305;4;669;377;35;3;382;18578;4;433;470;36;4;513;26798;5;534;223;37;5;1190;69503;4;585;505;393;630;41;6;889;51977;4;376;405;554;522;38;7;635;34322;4;683;442;34;8;628;34506;4;692;449;34;9;339;19089;4;386;485;33
09.06.21;18:50:00;1;533;10240;0;2;647;28254;4;706;374;36;3;406;18546;4;461;480;37;4;545;26756;5;567;223;38;5;1231;69403;4;610;525;400;627;41;6;919;51903;4;394;423;554;536;38;7;674;34270;4;727;448;34;8;672;34454;4;729;444;34;9;359;19061;4;408;492;33
09.06.21;18:45:00;1;470;10196;0;2;702;28200;4;763;378;36;3;441;18512;4;497;478;37;4;593;26710;5;618;222;38;5;1328;69300;4;671;567;396;619;41;6;995;51826;4;437;459;552;526;38;7;724;34213;4;782;441;34;8;728;34398;4;784;448;34;9;390;19031;4;438;494;34
09.06.21;18:40:00;1;523;10157;0;2;781;28142;4;847;377;37;3;491;18475;4;550;486;37;4;661;26661;5;689;226;38;5;1469;69188;4;744;627;398;637;41;6;1099;51743;4;491;512;560;534;39;7;806;34153;4;860;445;34;8;804;34337;4;866;444;34;9;436;18998;4;485;487;34
09.06.21;18:35:00;1;472;10113;0;2;1009;28077;4;1082;381;37;3;632;18434;4;695;497;38;4;840;26606;5;875;228;38;5;1718;69064;4;885;740;396;641;41;6;1275;51650;4;585;592;564;525;39;7;985;34086;4;1044;447;34;8;988;34270;4;1049;453;34;9;532;18962;4;586;499;34
09.06.21;18:30:00;1;473;10074;0;2;1157;27993;4;1234;379;38;3;726;18382;4;794;499;38;4;962;26536;5;1001;228;39;5;1862;68919;4;974;798;401;640;41;6;1398;51543;4;647;650;562;539;39;7;1123;34004;4;1199;458;35;8;1138;34188;4;1211;453;34;9;615;18917;4;673;506;34
09.06.21;18:25:00;1;473;10034;0;2;1160;27898;4;1239;382;38;3;739;18322;4;807;499;38;4;968;26456;5;1008;231;39;5;1900;68764;4;989;813;396;643;41;6;1426;51427;4;658;668;561;543;39;7;1083;33911;4;1149;454;35;8;1094;34094;4;1165;456;34;9;595;18867;4;652;503;35
09.06.21;18:20:00;1;473;9995;0;2;1139;27801;4;1218;382;38;3;718;18260;4;787;501;38;4;954;26376;5;994;232;39;5;1908;68606;4;987;816;396;650;41;6;1430;51307;4;676;657;565;540;39;7;1094;33821;4;1172;457;35;8;1116;34002;4;1188;458;35;9;605;18817;4;665;506;35
09.06.21;18:15:00;1;619;9953;0;2;973;27706;4;1048;383;38;3;619;18201;4;681;489;38;4;829;26296;5;864;223;39;5;1833;68449;4;955;784;400;642;42;6;1371;51190;4;633;642;559;541;39;7;997;33731;4;1060;451;35;8;803;33910;4;855;360;28;9;438;18767;4;482;404;28
09.06.21;18:10:00;1;549;9901;0;2;964;27625;4;1038;386;38;3;611;18149;4;676;491;38;4;826;26227;5;860;223;39;5;1871;68295;4;962;806;407;646;42;6;1403;51075;4;650;661;567;548;39;7;507;33647;4;540;224;17;8;764;33826;4;814;339;26;9;414;18706;0;457;377;26
09.06.21;18:05:00;1;529;9857;0;2;970;27544;4;1045;386;38;3;618;18098;4;680;493;38;4;835;26158;5;870;227;39;5;1914;68140;4;999;818;407;648;42;6;1434;50958;4;669;667;562;538;39;7;1027;33562;4;1094;451;35;8;1029;33743;4;1095;444;35;9;559;18676;4;615;499;35
09.06.21;18:00:00;1;574;9812;0;2;987;27464;4;1061;384;39;3;625;18046;4;690;494;39;4;860;26089;5;895;229;40;5;1973;67980;4;1026;848;403;650;42;6;1478;50838;4;689;690;566;542;39;7;1037;33477;4;1109;449;35;8;1051;33657;4;1119;450;35;9;569;18629;4;626;506;35
09.06.21;17:55:00;1;534;9765;0;2;1020;27381;4;1093;381;39;3;646;17994;4;710;492;39;4;883;26017;5;919;226;40;5;2039;67816;4;1071;879;403;646;42;6;1536;50714;4;710;726;561;549;40;7;1086;33391;4;1154;450;36;8;1083;33568;4;1158;453;35;9;592;18581;4;650;497;36
09.06.21;17:50:00;1;524;9720;0;2;1057;27296;4;1132;386;39;3;671;17940;4;736;498;39;4;916;25943;5;955;228;40;5;2120;67645;4;1109;912;405;654;42;6;1597;50586;4;747;747;570;541;40;7;1114;33299;4;1194;459;36;8;1130;33477;4;1202;454;35;9;617;18531;4;676;497;36
09.06.21;17:45:00;1;529;9676;0;2;1111;27208;4;1191;382;40;3;708;17884;4;775;492;39;4;967;25867;5;1007;228;40;5;2216;67468;4;1170;951;402;640;42;6;1668;50452;4;780;790;570;540;40;7;980;33207;4;1038;380;30;8;1189;33384;4;1264;449;36;9;647;18480;4;708;502;36
09.06.21;17:40:00;1;481;9636;0;2;1165;27116;4;1244;380;40;3;743;17825;4;812;491;40;4;1013;25787;5;1055;228;41;5;2306;67283;4;1213;995;409;645;43;6;1735;50313;4;817;824;569;539;40;7;995;33108;4;1055;362;28;8;1244;33284;4;1320;452;36;9;412;18405;0;448;299;22
09.06.21;17:35:00;1;512;9595;0;2;1227;27018;4;1312;382;40;3;783;17763;4;853;494;40;4;1071;25702;5;1115;230;41;5;2395;67090;4;1260;1037;402;642;43;6;1797;50167;4;854;850;564;549;40;7;1297;33005;4;1380;451;36;8;1304;33181;4;1381;456;36;9;712;18370;4;777;501;37
09.06.21;17:30:00;1;512;9552;0;2;1249;26916;4;1334;382;41;3;797;17698;4;866;502;40;4;1095;25613;5;1140;229;41;5;2427;66890;4;1279;1047;398;665;43;6;1826;50017;4;863;872;563;541;40;7;665;32840;0;700;224;18;8;995;33071;4;1057;339;27;9;727;18310;4;792;503;37
09.06.21;17:25:00;1;589;9509;0;2;1247;26812;4;1334;385;41;3;799;17632;4;869;495;40;4;1093;25521;5;1138;227;41;5;2434;66687;4;1280;1049;403;658;43;6;1822;49865;4;862;869;570;541;40;7;1321;32786;4;1403;453;37;8;1334;32963;4;1416;450;37;9;726;18251;4;791;502;37
09.06.21;17:20:00;1;591;9461;0;2;1248;26709;4;1335;384;42;3;799;17565;4;871;493;41;4;1086;25430;5;1131;226;42;5;2424;66484;4;1280;1045;403;647;43;6;1818;49713;4;861;866;570;543;40;7;1330;32677;4;1404;452;37;8;1335;32850;4;1413;450;37;9;727;18189;4;793;500;37
09.06.21;17:15:00;1;507;9411;0;2;1242;26604;4;1326;377;42;3;797;17498;4;867;483;41;4;1082;25340;5;1127;229;42;5;2381;66282;4;1257;1028;399;643;43;6;1790;49562;4;852;845;565;539;41;7;1317;32565;4;1402;449;37;8;1336;32738;4;1414;457;37;9;724;18128;4;791;497;38
09.06.21;17:10:00;1;521;9368;0;2;1228;26501;4;1315;380;42;3;787;17432;4;858;491;41;4;1066;25250;5;1110;226;42;5;2337;66083;4;1232;1008;402;647;44;6;1751;49413;4;826;832;558;545;41;7;1305;32456;4;1381;446;38;8;1313;32627;4;1394;455;37;9;716;18069;4;780;492;38
09.06.21;17:05:00;1;574;9323;0;2;1244;26398;4;1330;382;43;3;799;17366;4;869;490;42;4;1075;25161;5;1120;226;42;5;2340;65889;4;1247;1006;400;639;44;6;1749;49267;4;829;830;553;538;41;7;1322;32348;4;1403;449;38;8;1327;32518;4;1410;450;38;9;725;18009;4;789;497;38
09.06.21;17:00:00;1;541;9274;0;2;1312;26295;4;1398;382;44;3;837;17300;4;908;485;42;4;1124;25071;5;1171;228;43;5;2401;65694;4;1275;1038;393;646;44;6;1798;49121;4;855;850;559;540;41;7;1369;32238;4;1452;443;38;8;1381;32408;4;1460;445;38;9;750;17948;4;818;500;39
09.06.21;16:55:00;1;516;9228;0;2;1380;26185;4;1472;377;44;3;882;17230;4;956;479;42;4;1185;24977;5;1234;223;43;5;2504;65492;4;1328;1081;401;637;45;6;1875;48969;4;901;886;563;536;42;7;1437;32122;4;1521;447;39;8;1445;32291;4;1531;444;39;9;789;17885;4;859;498;39
09.06.21;16:50:00;1;492;9185;0;2;1463;26070;4;1556;374;45;3;938;17156;4;1015;483;43;4;1254;24879;5;1306;227;44;5;2634;65284;4;1395;1144;397;641;45;6;1975;48813;4;954;929;560;544;42;7;1497;32003;4;1586;449;39;8;1500;32171;4;1591;439;39;9;819;17820;4;889;497;40
09.06.21;16:45:00;1;471;9144;0;2;1493;25948;4;1587;374;46;3;956;17078;4;1032;480;43;4;1288;24774;5;1342;224;44;5;2781;65062;4;1480;1206;393;640;45;6;2085;48646;4;1004;992;559;542;42;7;1625;31878;4;1717;446;39;8;1639;32046;4;1737;449;39;9;900;17751;4;971;495;40
09.06.21;16:40:00;1;485;9105;0;2;1541;25823;4;1639;371;47;3;990;16998;4;1066;482;44;4;1359;24666;5;1416;224;45;5;3019;64828;4;1611;1311;399;645;45;6;2266;48471;4;1099;1083;558;549;42;7;1645;31743;4;1741;443;40;8;1649;31910;4;1751;445;40;9;907;17676;4;981;497;41
09.06.21;16:35:00;1;512;9065;0;2;2002;25694;4;2123;379;48;3;1303;16915;4;1390;479;45;4;1758;24552;5;1831;223;45;5;3737;64575;4;2015;1634;400;637;45;6;2826;48282;4;1383;1366;564;542;42;7;1957;31605;4;2072;446;40;8;1962;31773;4;2076;441;40;9;1074;17601;4;1156;499;42
09.06.21;16:30:00;1;508;9021;0;2;2557;25528;4;2702;374;49;3;1639;16807;4;1739;483;45;4;2216;24406;5;2308;222;45;5;4529;64250;4;2475;1984;404;652;45;6;3369;48042;4;1666;1630;567;543;43;7;2497;31444;4;2631;446;40;8;2467;31610;4;2598;448;40;9;1356;17512;4;1446;492;42
09.06.21;16:25:00;1;521;8978;0;2;2375;25311;4;2508;370;49;3;1532;16669;4;1628;478;45;4;2045;24219;5;2131;222;45;5;4202;63886;4;2282;1843;398;648;45;6;3191;47766;4;1580;1548;561;541;43;7;2683;31231;4;2821;437;41;8;2688;31401;4;2831;444;41;9;1468;17396;4;1564;488;43
09.06.21;16:20:00;1;568;8934;0;2;2717;25113;4;2865;369;49;3;1754;16541;4;1861;475;46;4;2379;24049;5;2478;222;45;5;4867;63535;4;2661;2141;401;640;45;6;3617;47502;4;1811;1754;559;541;43;7;2821;31007;4;2963;443;41;8;2816;31176;4;2964;444;41;9;1523;17273;4;1619;492;43
09.06.21;16:15:00;1;525;8885;0;2;3311;24880;4;3493;378;49;3;2152;16390;4;2275;489;46;4;2882;23844;5;3002;225;45;5;5658;63120;4;3112;2488;404;647;45;6;4227;47190;4;2122;2061;570;541;43;7;3583;30762;4;3757;441;41;8;3592;30931;4;3776;444;41;9;2005;17142;4;2126;507;43
09.06.21;16:10:00;1;542;8841;0;2;2654;24608;4;2801;385;48;3;1730;16212;4;1833;494;45;4;2302;23606;5;2397;229;44;5;4615;62648;4;2527;2030;407;656;45;6;3440;46838;4;1710;1664;573;550;43;7;3153;30468;4;3315;454;41;8;3176;30634;4;3342;455;41;9;1768;16976;4;1875;500;42
09.06.21;16:05:00;1;604;8795;0;2;1933;24385;4;2042;379;48;3;1258;16068;4;1344;491;45;4;1684;23413;5;1754;230;44;5;3505;62272;4;1892;1527;406;657;45;6;2655;46552;4;1291;1282;575;548;43;7;2041;30210;4;2156;459;41;8;2064;30375;4;2176;456;41;9;1143;16832;4;1224;499;42
09.06.21;16:00:00;1;538;8745;0;2;1582;24224;4;1677;383;48;3;1018;15963;4;1096;486;45;4;1368;23273;5;1424;227;44;5;2960;61986;4;1590;1283;404;653;45;6;2240;46336;4;1078;1065;570;543;44;7;1676;30041;4;1767;457;42;8;1691;30207;4;1788;457;42;9;926;16739;4;998;502;42
09.06.21;15:55:00;1;519;8700;0;2;1437;24092;4;1532;385;49;3;926;15878;4;998;488;46;4;1239;23159;5;1291;226;45;5;2771;61742;4;1469;1197;405;649;46;6;2095;46151;4;998;993;574;544;44;7;1539;29901;4;1629;453;42;8;1548;30063;4;1636;448;42;9;848;16660;4;919;502;43
09.06.21;15:50:00;1;522;8657;0;2;1363;23972;4;1454;379;50;3;878;15801;4;951;490;46;4;1176;23055;5;1224;228;45;5;2659;61512;4;1404;1152;398;639;46;6;2020;45977;4;966;955;569;545;45;7;1450;29772;4;1541;453;43;8;1464;29934;4;1551;444;43;9;800;16589;4;869;501;44
09.06.21;15:45:00;1;522;8614;0;2;1336;23858;4;1428;374;51;3;860;15728;4;931;486;47;4;1161;22957;5;1210;227;45;5;2651;61291;4;1399;1151;404;641;47;6;2011;45809;4;957;955;565;546;45;7;1411;29653;4;1497;445;44;8;1419;29812;4;1505;442;44;9;779;16524;4;843;493;45
09.06.21;15:40:00;1;650;8570;0;2;1369;23747;4;1462;374;53;3;880;15656;4;952;480;48;4;1192;22861;5;1242;221;46;5;2741;61069;4;1452;1181;396;639;47;6;2067;45641;4;971;989;556;540;46;7;1439;29534;4;1525;446;45;8;1446;29694;4;1536;445;45;9;794;16458;4;861;491;46
09.06.21;15:35:00;1;481;8522;0;2;1374;23633;4;1469;369;55;3;886;15582;4;958;474;49;4;1203;22761;5;1253;219;46;5;2799;60840;4;1488;1210;387;632;47;6;2134;45468;4;1015;1012;558;538;47;7;1204;29414;4;1281;362;39;8;1467;29574;4;1554;433;47;9;670;16392;4;726;410;39
09.06.21;15:30:00;1;524;8482;0;2;1538;23518;4;1642;363;57;3;985;15508;4;1060;461;50;4;1340;22660;5;1395;215;48;5;3088;60606;4;1657;1346;389;622;48;6;2318;45290;4;1112;1113;545;529;48;7;1566;29293;4;1667;435;47;8;1579;29450;4;1679;431;48;9;863;16324;4;936;484;48
09.06.21;15:25:00;1;632;8438;0;2;3455;23389;4;3655;359;60;3;2207;15426;4;2329;464;52;4;2972;22548;5;3095;212;50;5;6300;60335;4;3472;2797;386;622;48;6;4636;45087;4;2323;2277;550;533;48;7;3278;29163;4;3453;438;48;8;3170;29318;4;3345;439;49;9;1742;16252;4;1849;474;51